Location: Poinsettia Observatory
(32.9673°N, 117.0346°W)
Time: 19:16:56
(UTC-07:00)

Daily predictions for brighter satellites

Satellite Brightness Start Highest point End
(mag) Time Altitude Azimuth Time Altitude Azimuth Time Altitude Azimuth
Meteor 1-5 Rocket 4.3 19:32:59 10° SSE 19:38:05 49° E 19:43:18 10° NNE
Cosmos 1536 3.1 19:34:56 10° S 19:38:54 76° W 19:42:55 10° N
Cosmos 1025 Rocket 3.0 19:36:01 10° N 19:40:22 71° E 19:44:38 10° SSE
Cosmos 2297 Rocket 3.6 19:37:11 10° NNE 19:41:18 20° ENE 19:45:24 10° ESE
NOAA 12 4.3 19:40:59 10° S 19:46:13 79° WSW 19:51:28 10° NNW
Cosmos 1455 Rocket 3.3 19:43:06 10° SSE 19:47:14 47° E 19:51:25 10° NNE
Cosmos 1892 Rocket 3.8 19:43:25 10° N 19:47:48 51° E 19:52:09 10° SSE
Meteor 2-14 Rocket 4.5 19:41:51 10° S 19:47:55 67° E 19:54:01 10° NNE
HJ-1C 3.3 19:44:42 10° SSE 19:47:58 77° ENE 19:51:15 10° N
Meteor 1-29 3.2 19:45:40 10° N 19:49:07 76° WNW 19:52:36 10° SSW
Resurs 1-3 3.6 19:52:39 10° SSE 19:57:00 72° ENE 20:01:23 10° N
Cosmos 2123 Rocket 4.1 19:57:42 10° N 20:03:44 53° E 20:09:44 10° SSE
SL-24 R/B - RUBIN 2 4.2 20:04:21 10° SSW 20:09:54 70° ESE 20:16:12 10° NNE
Cosmos 1777 Rocket 4.3 20:07:18 10° NNW 20:12:33 72° WSW 20:17:47 10° S
OAO 2 Rocket 3.4 20:07:52 10° W 20:12:52 77° N 20:17:26 13° ENE
Cosmos 1697 Rocket 3.1 20:08:25 10° S 20:13:39 40° ESE 20:18:54 10° NE
Myojo/LAPS 3.5 20:15:23 10° WSW 20:17:48 32° S 20:18:41 23° SE
Resurs 01 Rocket 2.8 20:14:57 10° S 20:19:09 44° W 20:23:25 10° NNW
Delta 2 Rocket 4.0 20:15:06 10° WNW 20:20:51 83° SSW 20:24:27 21° ESE
Cosmos 2278 4.5 20:15:45 10° SW 20:21:17 56° WNW 20:26:53 10° N
H-2A R/B 2.7 20:21:25 10° SSE 20:25:10 69° ENE 20:29:04 10° N
ALOS 2.2 20:20:32 10° SSE 20:25:12 86° ENE 20:29:53 10° N
CZ-4B DEB 3.3 20:22:25 10° S 20:25:38 59° W 20:28:53 10° NNW
Cosmos 1975 2.8 20:21:41 10° S 20:25:43 65° E 20:29:47 10° NNE
USA 186 1.6 20:24:36 21° SSE 20:26:30 59° ENE 20:29:26 10° N
Cosmos 1153 Rocket 4.4 20:22:48 10° S 20:28:55 63° E 20:35:00 10° NNE
NOSS 3-4 (A) 3.9 20:23:42 10° NNW 20:30:52 86° WSW 20:37:48 13° SSE
NOSS 3-4 (C) 3.9 20:23:50 10° NNW 20:31:00 86° WSW 20:37:52 13° SSE
ATLAS 3B CENTAUR R/B 2.3 20:34:55 10° SW 20:35:28 13° SSW 20:35:28 13° SSW
OTV 4 0.4 20:33:35 10° WNW 20:36:32 71° NNE 20:37:04 53° E
Lacrosse 5 rocket 1.5 20:33:02 10° NNW 20:36:34 44° NE 20:37:27 36° E
Cosmos 1980 Rocket 2.6 20:31:35 10° S 20:36:44 38° ESE 20:41:56 10° NE
Envisat 3.8 20:40:38 28° E 20:41:44 30° ENE 20:46:08 10° N
Cosmos 2298 Rocket 4.4 20:37:41 10° N 20:42:47 45° ENE 20:44:41 32° ESE
Cosmos 1447 Rocket 4.5 20:36:58 10° N 20:43:15 65° E 20:48:17 17° SSE
Cosmos 1802 Rocket 4.5 20:40:41 21° SE 20:44:24 40° E 20:50:18 10° NNE
CZ-2D R/B 4.0 20:42:06 10° S 20:45:52 53° W 20:49:40 10° NNW
Cosmos 1937 Rocket 4.3 20:43:58 10° N 20:48:40 32° ENE 20:49:28 31° E
Iridium 4 Rocket 3.1 20:43:45 10° N 20:48:40 75° E 20:51:25 24° S
Tiangong 1 3.5 20:48:41 10° NNW 20:50:33 15° N 20:51:20 14° NNE
Hubble Space Telescope 2.7 20:51:53 10° WSW 20:54:37 17° SSW 20:55:13 17° S
FENGYUN 3A 4.5 20:51:45 10° S 20:56:55 49° W 21:02:06 10° NNW
Cosmos 2016 Rocket 4.3 20:55:44 36° ESE 20:57:08 41° E 21:02:51 10° NNE
Cosmos 1500 3.3 20:55:52 19° SSW 20:58:27 73° W 21:02:13 10° N
Cosmos 1939 Rocket 3.2 21:01:50 50° ENE 21:01:50 50° ENE 21:05:40 10° N
Cosmos 1825 Rocket 4.4 21:03:35 10° N 21:06:47 36° NE 21:06:47 36° NE
Cosmos 2150 Rocket 3.9 21:03:42 10° NNW 21:08:50 70° ENE 21:09:44 57° SE
Cosmos 2173 Rocket 3.9 21:03:42 13° S 21:09:25 77° E 21:15:46 10° N
ERS-1 Rocket 2.8 21:08:10 50° SSE 21:09:29 79° ENE 21:14:31 10° N
Cosmos 2227 Rocket 3.1 21:04:55 10° NW 21:10:16 44° WSW 21:14:16 17° S
Cosmos 2098 Rocket 4.5 21:10:27 41° ESE 21:10:54 42° E 21:16:40 10° NNE
BREEZE-M TANK 3.8 21:02:43 10° WNW 21:11:00 36° N 21:12:07 31° NE
Cosmos 1461 4.3 21:08:17 10° NW 21:11:48 30° WSW 21:13:01 25° SW
Lacrosse 5 2.6 21:10:24 10° NNW 21:15:08 38° NE 21:15:16 38° NE
YAOGAN 11 4.2 21:15:33 54° SSW 21:16:28 74° WSW 21:20:57 10° NNW
H-2A R/B 3.1 21:17:55 32° NNE 21:17:55 32° NNE 21:20:29 10° N
SPOT 5 3.6 21:19:02 40° NE 21:19:02 40° NE 21:22:53 10° N
Meteor 1-21 4.5 21:12:40 10° N 21:18:17 50° E 21:18:18 50° E
Cosmos 2360 4.1 21:20:15 56° SSE 21:21:17 68° ESE 21:26:58 10° NNE
Cosmos 1763 Rocket 3.2 21:21:34 67° S 21:22:12 82° ESE 21:27:18 10° NNE
DELTA 2 R/B (1) 3.5 21:16:56 10° WNW 21:22:31 75° NNE 21:23:11 66° ENE
Cosmos 2100 Rocket 4.1 21:16:59 10° S 21:23:17 74° W 21:29:32 10° N
Cosmos 2297 Rocket 3.0 21:20:09 10° NNW 21:25:32 47° WSW 21:28:02 29° SSW
Cosmos 1898 Rocket 3.6 21:22:20 10° NNW 21:27:37 72° WSW 21:28:26 60° SSW
Cosmos 2061 Rocket 4.2 21:25:05 13° SSW 21:30:42 72° W 21:36:59 10° N
RESURS DK-1 3.5 21:29:37 10° NNW 21:32:21 40° N 21:32:21 40° N
MetOp-A 4.5 21:36:02 52° NE 21:36:02 52° NE 21:40:27 10° N
Cosmos 1743 4.0 21:36:50 40° NW 21:36:50 40° NW 21:39:56 10° N
Cosmos 2084 4.3 21:34:03 10° NW 21:37:09 47° WNW 21:37:09 47° WNW
deb Chang Zheng 4 4.2 21:34:18 10° N 21:38:04 56° NNW 21:38:04 56° NNW
Nimbus 7 Rocket 4.5 21:34:02 10° N 21:40:06 78° WNW 21:42:46 36° SSW
Cosmos 841 Rocket 3.7 21:44:51 69° WNW 21:44:51 69° WNW 21:50:02 10° NNE
Cosmos 1725 Rocket 4.1 21:57:34 69° N 21:57:34 69° N 22:03:00 10° N
OAO 2 Rocket 4.2 21:52:48 10° WNW 21:56:23 46° WNW 21:56:23 46° WNW
SL-16 R/B 4.1 22:09:53 20° NNE 22:09:53 20° NNE 22:11:35 10° NNE
ARGOS 4.4 22:16:34 36° N 22:16:34 36° N 22:19:40 10° N
CZ-3C R/B 4.0 22:04:57 10° W 22:20:24 26° SW 22:20:53 25° SW
Cosmos 1980 Rocket 4.2 22:16:12 10° WSW 22:20:47 25° WNW 22:25:24 10° N
H-2A R/B 4.3 22:39:08 18° N 22:39:08 18° N 22:40:21 10° N
Cosmos 2263 Rocket 4.3 22:47:01 10° N 22:48:52 21° N 22:48:52 21° N
Milstar 3 Cent rocket 4.2 22:36:30 10° W 22:51:21 51° SW 22:51:21 51° SW
Cosmos 2322 Rocket 4.2 22:56:06 23° NNW 22:56:06 23° NNW 22:58:34 10° N
